Location: Newark
(56.0692°N, 115.8617°E)
Time: 11:49:29
(UTC+00:00)

Vanguard 2 Rocket - Pass Details

Date: 03 June 2020
Orbit: 556 x 3325 km, 32.9° (Epoch: 14 July)

Event Time Altitude Azimuth Distance (km) Brightness Sun altitude
Rises 08:33:03 0° 233° (SW) 4,144 11.1 32.5°
Reaches altitude 10° 08:36:27 10° 216° (SW) 3,570 10.6 32.1°
Maximum altitude 08:42:49 20° 174° (S) 3,531 10.1 31.2°
Drops below altitude 10° 08:51:32 10° 135° (SE) 5,121 10.4 30.0°
Sets 08:57:58 0° 122° (ESE) 6,627 10.9 29.1°
